EW4784 Weather Reports


time (UTC)temp
F
wind
direction
speed
knots
gust
knots
rain 1hr
in
rain 24hr
in
rain mn
in
humidity
%
barometer
mb
20260502152326 47 4 7.0 12.2 0.00 0.00 0.00 46
20260502151825 46 348 9.6 15.6 0.00 0.00 0.00 50
20260502151324 45 358 8.7 18.2 0.00 0.00 0.00 48
20260502150823 47 355 9.6 21.7 0.00 0.00 0.00 48
20260502150322 48 354 10.4 19.1 0.00 0.00 0.00 47
20260502130257 42 10 6.1 12.2 0.00 0.00 0.00 69
20260502123813 41 358 4.3 13.0 0.00 0.00 0.00 75
20260502123252 40 6 5.2 9.6 0.00 0.00 0.00 76
20260502122750 40 18 4.3 9.6 0.00 0.00 0.00 77
20260502122249 39 3 4.3 7.8 0.00 0.00 0.00 79
20260502121748 39 350 7.8 11.3 0.00 0.00 0.00 80
20260502121247 38 348 7.0 13.9 0.00 0.00 0.00 82
20260502120746 38 357 10.4 14.8 0.00 0.00 0.00 84
20260502120245 38 10 6.1 12.2 0.00 0.00 0.00 85
20260502115745 38 338 4.3 9.6 0.00 0.00 0.00 85
20260502115244 37 355 3.5 7.0 0.00 0.00 0.00 85
20260502114743 37 354 6.1 10.4 0.00 0.00 0.00 85
20260502114302 37 353 5.2 11.3 0.00 0.00 0.00 87
20260502113741 36 355 4.3 8.7 0.00 0.00 0.00 88
20260502113239 36 356 3.5 8.7 0.00 0.00 0.00 89
20260502112738 35 2 3.5 6.1 0.00 0.00 0.00 91
20260502112237 35 4 1.7 5.2 0.00 0.00 0.00 91
20260502111736 34 9 0.0 2.6 0.00 0.00 0.00 91
20260502111236 34 277 0.0 0.0 0.00 0.00 0.00 90
20260502110734 34 275 0.0 0.0 0.00 0.00 0.00 90
20260502110254 34 274 0.0 0.0 0.00 0.00 0.00 90
20260502105753 34 274 0.0 0.0 0.00 0.00 0.00 90
20260502105253 34 274 0.0 0.0 0.00 0.00 0.00 89
20260502104752 34 274 0.0 0.0 0.00 0.00 0.00 89
20260502104229 34 274 0.0 0.0 0.00 0.00 0.00 89
20260502103728 34 274 0.0 0.0 0.00 0.00 0.00 89
20260502103227 34 274 0.0 0.0 0.00 0.00 0.00 88
20260502102726 34 257 0.0 0.0 0.00 0.00 0.00 88
20260502102226 34 244 0.0 0.0 0.00 0.00 0.00 88
20260502101726 34 244 0.0 0.0 0.00 0.00 0.00 88
20260502101223 35 244 0.0 0.0 0.00 0.00 0.00 87
20260502100722 35 244 0.0 0.0 0.00 0.00 0.00 87
20260502100221 35 244 0.0 0.0 0.00 0.00 0.00 87
20260502091232 36 244 0.0 0.0 0.00 0.00 0.00 84
20260502090731 36 244 0.0 0.0 0.00 0.00 0.00 84
20260502090209 36 244 0.0 0.0 0.00 0.00 0.00 84
20260502071146 37 149 0.0 0.0 0.00 0.00 0.00 81
20260502070646 37 160 0.9 6.1 0.00 0.00 0.00 80
20260502070145 37 162 1.7 5.2 0.00 0.00 0.00 80
20260502065644 37 161 2.6 6.1 0.00 0.00 0.00 80
20260502065143 37 176 0.9 4.3 0.00 0.00 0.00 80
20260502064643 37 167 0.9 3.5 0.00 0.00 0.00 79
20260502064141 37 165 0.9 3.5 0.00 0.00 0.00 79
20260502063640 37 179 1.7 7.0 0.00 0.00 0.00 79
20260502063139 37 186 0.9 6.1 0.00 0.00 0.00 79
20260502062659 37 174 0.9 6.1 0.00 0.00 0.00 79
20260502062137 37 175 0.9 6.1 0.00 0.00 0.00 78
20260502061635 37 184 1.7 6.1 0.00 0.00 0.00 78
20260502061135 37 180 0.9 5.2 0.00 0.00 0.00 78
20260502060633 37 158 0.0 3.5 0.00 0.00 0.00 78
20260502060133 37 158 2.6 5.2 0.00 0.00 0.00 77
20260502055653 38 167 3.5 7.0 0.00 0.00 0.00 77
20260502055131 38 175 0.9 5.2 0.00 0.00 0.00 77
20260502054630 38 150 1.7 7.8 0.00 0.00 0.00 77
20260502054149 38 133 1.7 6.1 0.00 0.00 0.00 77
20260502053628 38 151 2.6 6.1 0.00 0.00 0.00 77
20260502053127 38 147 0.9 5.2 0.00 0.00 0.00 77
20260502052626 38 154 1.7 6.1 0.00 0.00 0.00 77
20260502052125 38 110 0.0 2.6 0.00 0.00 0.00 78
20260502051624 38 164 1.7 5.2 0.00 0.00 0.00 78
20260502051123 38 160 0.9 5.2 0.00 0.00 0.00 78
20260502050622 38 158 0.9 4.3 0.00 0.00 0.00 78
20260502050120 38 158 0.9 3.5 0.00 0.00 0.00 77
20260502045620 38 168 1.7 5.2 0.00 0.00 0.00 77
20260502045140 38 153 0.9 6.1 0.00 0.00 0.00 78
20260502044639 38 168 0.9 5.2 0.00 0.00 0.00 78
20260502044117 38 155 1.7 6.1 0.00 0.00 0.00 78
20260502043615 38 150 2.6 7.0 0.00 0.00 0.00 78
20260502043114 38 129 0.9 4.3 0.00 0.00 0.00 78
20260502042635 38 160 2.6 8.7 0.00 0.00 0.00 78
20260502042113 38 170 2.6 6.1 0.00 0.00 0.00 78
20260502041612 38 160 3.5 8.7 0.00 0.00 0.00 78
20260502041110 39 156 1.7 7.8 0.00 0.00 0.00 79
20260502040610 39 146 2.6 7.8 0.00 0.00 0.00 79
20260502040109 39 135 3.5 12.2 0.00 0.00 0.00 78
20260502035608 39 145 4.3 7.8 0.00 0.00 0.00 78
20260502035106 39 137 2.6 7.0 0.00 0.00 0.00 78
20260502034606 39 148 4.3 10.4 0.00 0.00 0.00 78
20260502034104 39 143 6.1 13.0 0.00 0.00 0.00 77
20260502033604 39 126 4.3 9.6 0.00 0.00 0.00 76
20260502033103 39 122 6.1 13.0 0.00 0.00 0.00 74
20260502032602 39 119 2.6 10.4 0.00 0.00 0.00 73
20260502032100 40 123 3.5 12.2 0.00 0.00 0.00 72
20260502031559 40 102 1.7 7.0 0.00 0.00 0.00 71
20260502031058 40 104 1.7 7.8 0.00 0.00 0.00 69
20260502030557 40 95 1.7 9.6 0.00 0.00 0.00 70
20260502030117 41 99 0.9 7.0 0.00 0.00 0.00 69
20260502025616 41 109 1.7 10.4 0.00 0.00 0.00 68
20260502025055 41 87 4.3 13.0 0.00 0.00 0.00 67
20260502024554 42 93 3.5 9.6 0.00 0.00 0.00 67
20260502024053 42 50 4.3 13.0 0.00 0.00 0.00 66
20260502023551 42 6 9.6 17.4 0.00 0.00 0.00 61
20260502023050 43 2 5.2 7.8 0.00 0.00 0.00 60
20260502022549 43 0 6.1 12.2 0.00 0.00 0.00 60
20260502022048 43 10 6.1 14.8 0.00 0.00 0.00 61
20260502021547 43 8 6.1 12.2 0.00 0.00 0.00 61
20260502021046 43 351 7.0 11.3 0.00 0.00 0.00 60
20260502020545 43 353 5.2 11.3 0.00 0.00 0.00 61
20260502020045 43 348 4.3 13.0 0.00 0.00 0.00 60
20260502015543 43 358 7.8 15.6 0.00 0.00 0.00 61
20260502015042 43 358 7.8 16.5 0.00 0.00 0.00 62
20260502014541 43 6 4.3 10.4 0.00 0.00 0.00 63
20260502014041 43 342 6.1 12.2 0.00 0.00 0.00 62
20260502013540 43 354 6.1 10.4 0.00 0.00 0.00 63
20260502013038 43 354 5.2 9.6 0.00 0.00 0.00 64
20260502012537 43 353 3.5 8.7 0.00 0.00 0.00 64
20260502012036 43 338 2.6 7.8 0.00 0.00 0.00 63
20260502011535 43 354 4.3 8.7 0.00 0.00 0.00 63
20260502011034 43 351 3.5 7.8 0.00 0.00 0.00 63
20260502010533 43 356 3.5 7.8 0.00 0.00 0.00 64
20260502010032 43 1 5.2 9.6 0.00 0.00 0.00 63
20260502005553 43 351 4.3 12.2 0.00 0.00 0.00 63
20260502005030 43 353 6.1 10.4 0.00 0.00 0.00 62
20260502004529 43 358 6.1 11.3 0.00 0.00 0.00 63
20260502004029 43 3 5.2 11.3 0.00 0.00 0.00 64
20260502003528 43 355 7.0 11.3 0.00 0.00 0.00 61
20260502003047 44 356 9.6 14.8 0.00 0.00 0.00 61
20260502002525 44 349 7.8 13.9 0.00 0.00 0.00 61
20260502002024 44 354 5.2 13.0 0.00 0.00 0.00 62
20260502001523 44 346 7.0 12.2 0.00 0.00 0.00 61
20260502001022 44 352 6.1 14.8 0.00 0.00 0.00 61
20260502000521 44 345 8.7 13.9 0.00 0.00 0.00 61
20260502000020 44 4 8.7 17.4 0.00 0.00 0.00 61
20260501235519 44 348 7.0 21.7 0.00 0.00 0.00 61
20260501235018 44 358 7.0 11.3 0.00 0.00 0.00 60
20260501234539 44 348 9.6 17.4 0.00 0.00 0.00 60
20260501234016 44 351 7.8 13.0 0.00 0.00 0.00 60
20260501233515 44 357 8.7 15.6 0.00 0.00 0.00 60
20260501233035 44 349 8.7 14.8 0.00 0.00 0.00 61
20260501232513 45 351 12.2 20.0 0.00 0.00 0.00 62
20260501232012 45 14 7.8 13.9 0.00 0.00 0.00 61
20260501231511 45 349 7.0 16.5 0.00 0.00 0.00 61
20260501231010 45 3 8.7 16.5 0.00 0.00 0.00 62
20260501230509 45 4 8.7 20.0 0.00 0.00 0.00 62
20260501230008 45 352 7.0 13.9 0.00 0.00 0.00 61
20260501225506 45 10 7.0 14.8 0.00 0.00 0.00 61
20260501225006 45 12 5.2 13.9 0.00 0.00 0.00 61
20260501224505 45 0 7.0 13.9 0.00 0.00 0.00 61
20260501224004 45 352 9.6 17.4 0.00 0.00 0.00 60
20260501223524 45 0 6.1 14.8 0.00 0.00 0.00 60
20260501223002 45 0 11.3 20.0 0.00 0.00 0.00 61
20260501222501 45 351 9.6 17.4 0.00 0.00 0.00 61
20260501222000 45 356 10.4 19.1 0.00 0.00 0.00 62
20260501221520 45 352 7.8 15.6 0.00 0.00 0.00 64
20260501220958 45 0 10.4 21.7 0.00 0.00 0.00 65
20260501220456 46 348 8.7 14.8 0.00 0.00 0.00 61
20260501215955 46 348 8.7 20.0 0.00 0.00 0.00 57
20260501215455 47 352 7.8 18.2 0.00 0.00 0.00 54
20260501214954 47 338 6.1 13.9 0.00 0.00 0.00 52
20260501214452 48 345 8.7 13.9 0.00 0.00 0.00 53
20260501213952 48 354 8.7 16.5 0.00 0.00 0.00 53
20260501213512 48 358 8.7 16.5 0.00 0.00 0.00 53
20260501212950 48 346 9.6 15.6 0.00 0.00 0.00 54
20260501212449 48 7 8.7 16.5 0.00 0.00 0.00 55
20260501211948 48 359 11.3 20.0 0.00 0.00 0.00 54
20260501211447 49 356 10.4 18.2 0.00 0.00 0.00 54
20260501210946 49 343 7.8 18.2 0.00 0.00 0.00 54
20260501210445 48 341 7.0 13.0 0.00 0.00 0.00 54
20260501205944 48 351 7.0 15.6 0.00 0.00 0.00 55
20260501205443 48 354 7.0 12.2 0.00 0.00 0.00 55
20260501204941 48 323 6.1 12.2 0.00 0.00 0.00 53
20260501204441 49 344 4.3 10.4 0.00 0.00 0.00 53
20260501203940 49 1 8.7 13.0 0.00 0.00 0.00 53
20260501203438 49 330 6.1 13.0 0.00 0.00 0.00 53
20260501202938 49 5 6.1 14.8 0.00 0.00 0.00 53
20260501202437 50 353 9.6 17.4 0.00 0.00 0.00 54
20260501201935 49 359 5.2 10.4 0.00 0.00 0.00 58
20260501201456 48 2 6.1 13.9 0.00 0.00 0.00 58
20260501200934 48 3 9.6 17.4 0.00 0.00 0.00 56
20260501200433 49 349 7.0 11.3 0.00 0.00 0.00 54
20260501195932 49 341 6.1 12.2 0.00 0.00 0.00 52
20260501195430 49 353 7.0 15.6 0.00 0.00 0.00 51
20260501194929 50 4 10.4 16.5 0.00 0.00 0.00 51
20260501194429 50 9 6.1 11.3 0.00 0.00 0.00 52
20260501193948 49 350 7.8 13.0 0.00 0.00 0.00 53
20260501193448 49 336 7.0 13.0 0.00 0.00 0.00 52
20260501192926 48 4 6.1 15.6 0.00 0.00 0.00 54
20260501192445 48 346 10.4 17.4 0.00 0.00 0.00 51
20260501191923 49 353 9.6 18.2 0.00 0.00 0.00 52
20260501191423 50 1 10.4 26.1 0.00 0.00 0.00 51
20260501190943 50 10 7.8 17.4 0.00 0.00 0.00 51
20260501190420 51 4 8.7 18.2 0.00 0.00 0.00 52
20260501185920 50 342 9.6 19.1 0.00 0.00 0.00 50
20260501185418 49 9 11.3 20.0 0.00 0.00 0.00 53
20260501184939 49 4 12.2 24.3 0.00 0.00 0.00 53
20260501184417 49 342 9.6 17.4 0.00 0.00 0.00 50
20260501183936 50 346 12.2 19.1 0.00 0.00 0.00 51
20260501183414 51 18 8.7 16.5 0.00 0.00 0.00 51
20260501182914 51 28 9.6 20.0 0.00 0.00 0.00 51
20260501182412 51 12 10.4 20.0 0.00 0.00 0.00 52
20260501181933 51 15 7.8 19.1 0.00 0.00 0.00 52
20260501181410 50 32 6.1 12.2 0.00 0.00 0.00 52
20260501180930 49 6 9.6 16.5 0.00 0.00 0.00 55
20260501180408 49 13 11.3 22.6 0.00 0.00 0.00 54
20260501175908 48 7 7.8 15.6 0.00 0.00 0.00 54
20260501175407 48 359 11.3 24.3 0.00 0.00 0.00 52
20260501174906 50 1 13.0 20.0 0.00 0.00 0.00 48
20260501174404 51 15 7.8 14.8 0.00 0.00 0.00 47
20260501173904 51 10 7.0 12.2 0.00 0.00 0.00 48
20260501173403 50 359 6.1 12.2 0.00 0.00 0.00 52
20260501172901 49 2 7.0 13.9 0.00 0.00 0.00 53
20260501172400 48 333 7.0 13.0 0.00 0.00 0.00 51
20260501171921 48 5 5.2 12.2 0.00 0.00 0.00 55
20260501171419 48 3 2.6 8.7 0.00 0.00 0.00 55
20260501170857 48 351 1.7 6.1 0.00 0.00 0.00 53
20260501170356 49 50 1.7 7.8 0.00 0.00 0.00 54
20260501165855 49 8 5.2 9.6 0.00 0.00 0.00 54
20260501165354 49 355 7.8 12.2 0.00 0.00 0.00 54
20260501164853 49 345 5.2 13.0 0.00 0.00 0.00 55
20260501164353 50 4 7.0 10.4 0.00 0.00 0.00 54
20260501163851 52 3 4.3 9.6 0.00 0.00 0.00 53
20260501163411 52 87 1.7 7.8 0.00 0.00 0.00 56
20260501162849 50 11 4.3 10.4 0.00 0.00 0.00 59
20260501162348 48 9 5.2 13.0 0.00 0.00 0.00 60
20260501161847 48 350 5.2 9.6 0.00 0.00 0.00 60
20260501161346 48 12 2.6 10.4 0.00 0.00 0.00 61
20260501160845 48 51 3.5 9.6 0.00 0.00 0.00 64
20260501160344 47 350 0.9 7.0 0.00 0.00 0.00 65
20260501155843 47 84 2.6 7.8 0.00 0.00 0.00 67
20260501155342 48 152 1.7 7.0 0.00 0.00 0.00 67
20260501154841 49 164 2.6 9.6 0.00 0.00 0.00 66
20260501154340 49 161 0.9 5.2 0.00 0.00 0.00 67
20260501153840 49 125 2.6 10.4 0.00 0.00 0.00 67